627  
ASUS42 KTAE 031815  
RWRTAE  
RWRTAE  
NORTH FLORIDA/SOUTH ALABAMA/SOUTHWEST GEORGIA WEATHER ROUNDUP  
NATIONAL WEATHER SERVICE TALLAHASSEE FLORIDA  
100 PM EST SAT DEC 03 2022  
 
NOTE: "FAIR" INDICATES FEW OR NO CLOUDS BELOW 12,000 FEET WITH NO  
SIGNIFICANT WEATHER AND/OR S TO VISIBILITY
.  
 
!FLZ017-115-028-034-025-031900   
..NORTH FLORIDA
 
 
 
CITY SKY/WX TMP DP RH WIND PRES REMARKS
 
TALL INTL ARPT MOSUNNY 78 59 51 S8 30.30F  
FSU LOVE BLDG N/A 77 59 53 S8 N/A  
APALACHICOLA SUNNY 73 67 81 SE8 30.30F  
PERRY NOT AVBL  
CROSS CITY CLOUDY 79 58 48 N6 30.31F  
JACKSONVILLE PTSUNNY 79 58 48 SW6 30.31F  

 
 
!FLZ112-006-005-002-011-031900   
..FLORIDA PANHANDLE
 
 
 
CITY SKY/WX TMP DP RH WIND PRES REMARKS
 
MARIANNA CLOUDY 78 63 59 SW8 30.30F  
BONIFAY NOT AVBL  
PANAMA CITY NW CLOUDY 76 65 68 S9 30.31F  
TYNDALL AFB SUNNY 75 63 65 S10 30.31F  
TYND DRONE APT FAIR 80 66 62 S10 30.28F  
DE FUNIAK SPR MOCLDY 74 65 74 MISG 30.31F  
EGLIN AFB SUNNY 74 67 76 S9 30.28F  
DESTIN CLOUDY 78 68 71 S6 30.30F  
HURLBURT MOSUNNY 75 68 79 S12 30.29  
CRESTVIEW MOSUNNY 78 67 68 S10 30.31F  
PENSACOLA MOSUNNY 79 67 66 S10 30.30F  

 
 
!ALZ063-066-031900   
..SOUTH ALABAMA
 
 
 
CITY SKY/WX TMP DP RH WIND PRES REMARKS
 
DOTHAN PTSUNNY 76 64 66 SW13 30.33F  
OZARK CAIRNS PTSUNNY 74 62 66 SW8 30.29  
FT RUCKER HELI CLOUDY 74 64 69 SW8 30.29F  
RUCKER HELI 3 CLOUDY 74 64 69 W6 30.29F  
RUCKER HELI 2 CLOUDY 73 65 75 SW3 30.28F  
FLORALA APT MOSUNNY 78 63 59 SW9 30.31F  
ANDALUSIA PTSUNNY 79 63 57 SW8 30.29F  
TROY MOSUNNY 79 62 56 SW9 30.30F  
EUFALA PTSUNNY 77 63 61 SW8 30.29F  
MOBILE PTSUNNY 77 68 73 S7 30.30F  

 
 
!GAZ120>161-031900   
..SOUTHWEST AND SOUTH CENTRAL GEORGIA
 
 
 
CITY SKY/WX TMP DP RH WIND PRES REMARKS
 
THOMASVILLE FAIR 77 57 50 SW6 30.32F  
BAINBRIDGE MOSUNNY 78 60 52 SW10 30.31F  
MOODY AFB SUNNY 78 56 45 SW8 30.29F  
VALDOSTA SUNNY 79 57 46 S8 30.31F  
MOULTRIE SUNNY 75 59 57 S7 30.31F  
BLAKELY MOSUNNY 77 59 53 SW8 30.30F  
ALBANY SUNNY 78 57 48 SW8G17 30.31F  
TIFTON NOT AVBL  
FITZGERALD FAIR 77 58 52 SW5 30.30F  
CORDELE FAIR 76 57 51 SW10G16 30.31F  
AMERICUS MOCLDY 74 60 61 S9G17 30.29F  
HOMERVILLE FAIR 77 58 50 S9 30.31F  

 
 
!GMZ750-755-770-775-031900   
..COASTAL AND BUOY OBS
 
 
 
STATION/POSITION TIME TEMP WIND PRES VSBY WAVE
 
AIR SEA DIR/SP/G HT/PER  
(UTC) (F) (DEG/KT/KT) (MB) (MI) (FT/S)  
KEATON BEACH 1800 71 200/ 4/ 5 1026.8F  
CEDAR KEY 1800 74 250/ 3/ 5 1026.8F  
C TOWER 1800 71 1026.0F  
APALACHICOLA BUO 1800 72 70/ 8/ 10 1024.9  
PANAMA CITY BUOY 1750 75 140/ 10/ 12 1026.7 3/ 6  
MOBILE BUOY 1800 75 160/ 6/ 6 1026.3  
ORANGE BCH AL BU 1750 72 71 180/ 6/ 8 1026.0F 2/ 4  

 
 
 
CLICK HERE TO GO TO PREVIOUS BULLETINS.

The Nexlab FL Page
The Nexlab GA Page
The Nexlab AL Page Main Text Page